Regional Weather Roundup
Issued by NWS Grand Forks, ND

Home | Current Version | Previous Version | Text Only | Print | Product List | Glossary Off
Versions: 1 2 3 4 5 6 7 8 9 10 11 12 13 14 15 16 17 18 19 20 21 22 23 24 25 26 27 28 29 30 31 32 33 34 35 36 37 38 39 40 41 42 43 44 45 46 47 48 49 50

000
ASUS43 KFGF 300710
RWRFGF
PRAIRIE TO PINES  WEATHER ROUNDUP
NATIONAL WEATHER SERVICE EASTERN NORTH DAKOTA/GRAND FORKS ND
100 AM CST FRI JAN 30 2015

 **SATELLITE DATA USED TO AUGMENT SKY COVER AT AUTOMATED STATIONS**
 *****  WEATHER ACROSS EASTERN NORTH DAKOTA  *****

CITY           SKY/WX    TMP DP  RH WIND       PRES   REMARKS
GRAND FORKS    CLOUDY     6  -1  73 S7        30.54F WCI  -6
GRAND FRKS AFB MOCLDY     6   0  76 S8        30.52F WCI  -7
GRAND FRKS NWS   N/A      5 N/A N/A S5          N/A  WCI  -4
DEVILS LAKE    MOCLDY    10   5  79 SE12      30.41F WCI  -4
FARGO          MOCLDY     8   1  73 E6        30.56F WCI  -2
WAHPETON ARPT  MOSUNNY    9   1  72 CALM      30.56F
$$

 ***** WEATHER ACROSS CENTRAL AND WESTERN NORTH DAKOTA  *****

CITY           SKY/WX    TMP DP  RH WIND       PRES   REMARKS
BISMARCK       CLEAR     17  15  92 SE8       30.39F WCI   7
MINOT          PTCLDY    15  11  83 SE6       30.31F WCI   6
JAMESTOWN      CLOUDY    18  13  80 SE9       30.43F WCI   7
MINOT AFB      PTCLDY    15  15  99 SE9       30.31F WCI   3
GARRISON         N/A     18  15  88 SE6       30.31F WCI  10
WILLISTON      PTCLDY    26  20  77 S7        30.21F WCI  18
DICKINSON      CLEAR     24  17  74 S12       30.24F WCI  13
HETTINGER      CLEAR     25  16  68 SE6       30.30F WCI  18
$$

 *****  OTHER AIRPORT OBSERVATIONS IN OUR AREA  *****

CITY           SKY/WX    TMP DP  RH WIND       PRES   REMARKS
WALHALLA         N/A      5   5 100 SE7       30.49F WCI  -7
GRAFTON AIRPOR NOT AVBL
VALLEY CITY AR CLOUDY    12  12 100 SE10      30.48F WCI  -1
CANDO          CLOUDY    14   9  79 S9        30.41F WCI   2
CAVALIER APRT  FAIR       5   0  78 S8        30.51F WCI  -8
GWINNER        CLOUDY    19  14  79 E6        30.52F WCI  11
ROLLA          CLOUDY     9   9 100 S12       30.36F WCI  -6
 ***** THE ABOVE OBSERVATIONS ARE NON NWS ARE NOT QUALITY
       CONTROLLED AND MAY MIS-REPORT RAIN FOR SNOW...
$$

  *****  WEATHER ACROSS NORTHERN MINNESOTA  *****

CITY           SKY/WX    TMP DP  RH WIND       PRES   REMARKS
FLAG ISLAND    MOCLDY    -6  -9  84 W3        30.50F
WARROAD        PTCLDY    -4  -8  84 CALM      30.51F
ROSEAU         MOCLDY     0  -6  78 S3        30.51F
HALLOCK        CLOUDY     3  -2  78 SE3       30.53S
THF RVR FALLS  MOCLDY     1  -2  85 SE5       30.51F WCI  -8
BAUDETTE       PTCLDY    -5 -10  79 CALM      30.50S
WASKISH        PTCLDY    -2  -6  84 CALM      30.52S
CROOKSTON      PTCLDY     5   0  78 SE8       30.54F WCI  -8
STEPHEN NDAWN    N/A      3   0  85 SE6         N/A  WCI  -8
GREENBUSH NDAW   N/A      0  -2  92 S3          N/A
$$
  *****  WEATHER ACROSS CENTRAL AND WEST MINNESOTA  *****

CITY           SKY/WX    TMP DP  RH WIND       PRES   REMARKS
FOSSTON        PTCLDY     0  -6  78 CALM      30.52F
BEMIDJI        PTCLDY    -1  -4  87 SW3       30.50F
PARK RAPIDS    CLOUDY     4   0  83 CALM      30.50F
ELBOW LAKE     FAIR       7   3  83 CALM      30.54F
WADENA         PTCLDY     3   0  85 CALM      30.52F
DETROIT LAKES  FAIR       3   1  92 CALM      30.52F
MOORHEAD       PTCLDY     9   5  85 CALM      30.56F
FERGUS FALLS   PTCLDY     7   0  72 CALM      30.58F
MORRIS MN      CLEAR     10   5  79 N5        30.54F WCI   2
STAPLES        PTCLDY     3   1  92 NW3       30.53F
$$
  *****  WEATHER ELSEWHERE ACROSS MINNESOTA  *****

CITY           SKY/WX    TMP DP  RH WIND       PRES   REMARKS
DULUTH         PTCLDY     4  -2  76 VRB3      30.45R
INTRNTL FALLS  PTCLDY   -17 -19  91 W5        30.49S WCI -30
ELY            NOT AVBL
CLOQUET        PTCLDY     1  -2  85 NW8       30.48R WCI -12
WHEATON        CLEAR      9   5  85 E5        30.57F WCI   0
BRAINERD       CLEAR      5   0  79 NW6       30.53F WCI  -6
HIBBING        PTCLDY    -6 -12  75 CALM      30.48R
ALEXANDRIA     CLEAR      6   2  83 CALM      30.52F
SAINT CLOUD    FAIR      10   5  80 NW8       30.56R WCI  -2
MINNEAPOLIS    PTCLDY    14   5  67 NW8       30.56R WCI   3
$$

  *****  WEATHER ACROSS SOUTH DAKOTA  *****

CITY           SKY/WX    TMP DP  RH WIND       PRES   REMARKS
SIOUX FALLS    MOCLDY    19  15  84 CALM      30.52F
BROOKINGS      NOT AVBL
WATERTOWN      CLOUDY    18  13  80 S6        30.47F WCI  10
HURON          CLEAR     18  15  88 S5        30.51F WCI  11
SISSETON         N/A     15  10  80 E6        30.52F WCI   6
ABERDEEN       CLEAR     16  12  84 S5        30.50F WCI   9
MITCHELL       CLEAR     20  17  88 S7        30.53F WCI  11
PIERRE         CLEAR     22  18  85 SE13      30.42F WCI  10
MOBRIDGE       CLEAR     22  18  85 SE13      30.39F WCI  10
RAPID CITY     CLEAR     23  12  62 SE7       30.29F WCI  15
$$

  *****  SOME WEATHER IN NEARBY STATES *****

CITY           SKY/WX    TMP DP  RH WIND       PRES   REMARKS
GLASGOW MT     PTCLDY    25  21  85 E7        30.17F WCI  17
GREAT FALLS MT CLEAR     32  19  58 SW14      30.21R WCI  22
CHEYENNE WY    CLOUDY    29  20  69 S8        30.28F WCI  21
SCOTTSBLUFF NE MOCLDY    28  21  75 E8        30.34F WCI  20
OMAHA NE       CLEAR     24  19  81 N6        30.55S WCI  17
DES MOINES IA  PTCLDY    24  17  74 N10       30.52F WCI  14
DAVENPORT IA   CLEAR     23  14  68 NW12      30.44R WCI  12
CHICAGO IL     CLOUDY    28  14  55 N16       30.34R WCI  16
EAU CLAIRE WI  CLEAR     10   1  67 NW7       30.50R WCI  -1
LA CROSSE WI   PTCLDY    18   8  65 NW13      30.50R WCI   5
$$

  *****  SOME NATIONAL WEATHER *****

CITY           SKY/WX    TMP DP  RH WIND       PRES   REMARKS
LA GUARDIA NY  LGT SNOW  32  29  88 SW9       29.94F FOG     WCI  24
RALEIGH NC     PTCLDY    40  25  55 NW5       29.99S
ATLANTA GA     CLOUDY    50  37  62 NW26G32   30.13R
NEW ORLEANS LA MOCLDY    58  54  86 NW6       30.23S
OKLAHOMA CITY  CLOUDY    42  26  53 NE12      30.51S
ALBUQUERQUE NM CLOUDY    42  20  41 E22       30.40S
SALT LAKE CITY CLOUDY    39  35  86 CALM      30.24F
LOS ANGELES CA CLOUDY    65  47  52 VRB6      30.02F
BOISE ID       CLOUDY    35  32  88 CALM      30.32S
SEATTLE WA     CLEAR     42  37  82 CALM      30.30S
$$

*** WEATHER ACROSS MANITOBA...SASKATCHEWAN AND ONTARIO ***
                ***ONTARIO***

CITY           SKY/WX    TMP DP  RH WIND       PRES   REMARKS
GERALDTON      CLEAR     -9 -15  77 W5        30.34S WCI -21
THUNDER BAY    CLEAR     -2  -8  78 W6        30.49R WCI -14
SIOUX LOOKOUT  CRYSTALS -13 -17  84 W2        30.42F
TORONTO        CLOUDY    28  21  74 N22G29    29.89R WCI  15
BIG TROUT LK   CLEAR    -15 -20  76 W8        30.29S WCI -32
PICKLE LAKE    NOT AVBL
DRYDEN         CLEAR     -8 -11  84 W7        30.43F WCI -22
KENORA         CLEAR     -8 -13  77 NW7       30.46F WCI -22
$$
                *** MANITOBA***

CITY           SKY/WX    TMP DP  RH WIND       PRES   REMARKS
BRANDON        FLURRIES   9   5  85 S5        30.39F WCI   0
DAUPHIN        CLOUDY     5   1  85 S5        30.38F WCI  -4
ISLAND LAKE    CLEAR    -17 -22  76 SW3       30.39S
PILOT MOUND      N/A      7   3  85 S12         N/A  WCI  -9
THE PAS        CLOUDY    -2  -8  78 S7        30.30F WCI -16
THOMPSON       PTCLDY   -17 -22  76 SW3       30.30F
WINNIPEG       CLOUDY     1  -6  71 S8        30.51F WCI -12
LYNN LAKE      CLOUDY   -17 -20  83 SW5       30.20F WCI -29
CHURCHILL      MOCLDY    -9 -17  70 W12G18    30.14F WCI -29
GILLAM         CLEAR    -13 -20  70 W8        30.25F WCI -30
$$
                ***SASKATCHEWAN***

CITY           SKY/WX    TMP DP  RH WIND       PRES   REMARKS
ESTEVAN        PTCLDY    14  12  92 E9        30.23F WCI   2
KINDERSLEY     PTCLDY    12  10  92 SW5       30.16S WCI   4
LLOYDMINSTER   CLOUDY    21  19  93 W12       30.13F WCI   9
PRINCE ALBERT  CLOUDY    10   5  79 SW5       30.21F WCI   2
REGINA         PTCLDY    16  14  93 SE14      30.18F WCI   1
YORKTON        FLURRIES   9   5  85 S9        30.26F WCI  -5
N. BATTLEFORD  CLOUDY    14  12  92 SW2       30.19S
LA RONGE       LGT SNOW   5   1  85 NE6       30.19F WCI  -6
SASKATOON      PTCLDY    12   9  85 S6        30.19F WCI   3
SWIFT CURRENT  CLEAR     27  23  86 W13       30.13R WCI  16
$$
NOTE: THESE ARE AUTOMATED STATIONS WITH LIMITED QUALITY CONTROL
      "FAIR" INDICATES FEW OR NO CLOUDS BELOW 12,000 FEET WITH NO
      SIGNIFICANT WEATHER AND/OR OBSTRUCTIONS TO VISIBILITY.
      SKY/WX - SKY CONDITION AND SIGNIFICANT WEATHER.
      TMP - AIR TEMPERATURE.    DP   - DEWPOINT TEMPERATURE.
      RH  - RELATIVE HUMIDITY.  PRES - PRESSURE.
      HX  - HEAT INDEX.         WCI  - WIND CHILL INDEX.
$


USA.gov is the U.S. government's official web portal to all federal, state and local government web resources and services.